Change the Weather History Date:

Wednesday, May 29, 2013

  Actual Average Record
Temperature  
Mean Temperature 74 °F 65 °F  
Max Temperature 88 °F 76 °F 93 °F (1969)
Min Temperature 59 °F 55 °F 41 °F (1936)
Degree Days  
Heating Degree Days 0 3  
Month to date heating degree days 175 163  
Since 1 July heating degree days 4949 5131  
Cooling Degree Days 9 3  
Month to date cooling degree days 47 44  
Year to date cooling degree days 61 52  
Growing Degree Days 24 (Base 50)    
Moisture  
Dew Point 62 °F    
Average Humidity 72    
Maximum Humidity 100    
Minimum Humidity 43    
Precipitation  
Precipitation 0.00 in 0.18 in 2.32 in (1968)
Month to date precipitation 3.34 4.00  
Year to date precipitation 12.82 17.15  
Sea Level Pressure  
Sea Level Pressure 30.06 in    
Wind  
Wind Speed 5 mph (West)    
Max Wind Speed 14 mph    
Max Gust Speed 18 mph    
Visibility 6 miles    
Events Fog    
T = Trace of Precipitation, MM = Missing Value Source: NWS Daily Summary

Daily Weather History Graph

Daily Weather History Graph

Search for Another Location

Airport or City:

Trip Planner

Search our weather history database for the weather conditions in past years. The results will help you decide how hot, cold, wet, or windy it might be!

Date:

Astronomy

May. 29, 2013 Rise Set
Actual Time 5:32 AM EDT 8:20 PM EDT
Civil Twilight 5:00 AM EDT 8:53 PM EDT
Nautical Twilight 4:20 AM EDT 9:33 PM EDT
Astronomical Twilight 3:34 AM EDT 10:19 PM EDT
Moon No Moon Rise 10:29 AM EDT (5/29)
Length of Visible Light 15h 52m
Length of Day
14h 47m
Waning Gibbous, 73% of the Moon is Illuminated
May 29
Waning Gibbous
May 31
Last Quarter
Jun 8
New
Jun 16
First Quarter
Jun 23
Full

Hourly Weather History & Observations

Time (EDT) Temp. Heat Index Dew Point Humidity Pressure Visibility Wind Dir Wind Speed Gust Speed Precip Events Conditions
12:53 AM 59.0 °F - 57.9 °F 96% 30.11 in 0.2 mi ENE 3.5 mph - N/A Fog Fog
1:53 AM 59.0 °F - 59.0 °F 100% 30.08 in 0.2 mi Calm Calm - N/A Fog Fog
2:53 AM 59.0 °F - 59.0 °F 100% 30.07 in 0.2 mi Calm Calm - N/A Fog Fog
3:53 AM 59.0 °F - 57.9 °F 96% 30.06 in 0.2 mi Calm Calm - N/A Fog Fog
4:53 AM 59.0 °F - 57.9 °F 96% 30.06 in 0.2 mi Calm Calm - N/A Fog Fog
5:53 AM 59.0 °F - 57.9 °F 96% 30.06 in 0.2 mi Calm Calm - N/A Fog Fog
6:53 AM 59.0 °F - 59.0 °F 100% 30.07 in 0.2 mi Calm Calm - N/A Fog Fog
7:53 AM 60.1 °F - 59.0 °F 96% 30.08 in 1.0 mi Calm Calm - N/A   Overcast
8:45 AM 62.6 °F - 60.8 °F 94% 30.10 in 2.0 mi Calm Calm - N/A   Overcast
8:53 AM 62.1 °F - 61.0 °F 96% 30.09 in 2.5 mi Calm Calm - N/A   Overcast
9:09 AM 62.6 °F - 62.6 °F 100% 30.10 in 3.0 mi Calm Calm - N/A   Overcast
9:53 AM 66.0 °F - 63.0 °F 90% 30.08 in 3.0 mi Calm Calm - N/A   Overcast
10:01 AM 66.2 °F - 64.4 °F 94% 30.10 in 4.0 mi West 4.6 mph - N/A   Mostly Cloudy
10:18 AM 69.8 °F - 64.4 °F 83% 30.10 in 4.0 mi WSW 5.8 mph - N/A   Scattered Clouds
10:53 AM 72.0 °F - 66.0 °F 81% 30.08 in 5.0 mi NW 3.5 mph - N/A   Haze
11:53 AM 77.0 °F - 69.1 °F 76% 30.08 in 7.0 mi Calm Calm - N/A   Clear
12:53 PM 81.0 °F 83.3 °F 66.9 °F 62% 30.06 in 10.0 mi West 6.9 mph - N/A   Clear
1:53 PM 84.9 °F 86.1 °F 64.0 °F 49% 30.05 in 10.0 mi West 9.2 mph - N/A   Clear
2:53 PM 86.0 °F 87.3 °F 64.0 °F 48% 30.04 in 10.0 mi West 10.4 mph - N/A   Partly Cloudy
3:53 PM 88.0 °F 88.7 °F 63.0 °F 43% 30.02 in 10.0 mi WNW 9.2 mph - N/A   Partly Cloudy
4:53 PM 86.0 °F 86.3 °F 62.1 °F 44% 30.01 in 10.0 mi WSW 11.5 mph - N/A   Clear
5:53 PM 87.1 °F 87.5 °F 62.1 °F 43% 30.01 in 10.0 mi West 9.2 mph - N/A   Clear
6:53 PM 84.9 °F 85.9 °F 63.0 °F 48% 30.01 in 10.0 mi WSW 8.1 mph - N/A   Partly Cloudy
7:53 PM 82.9 °F 83.7 °F 62.1 °F 49% 30.00 in 10.0 mi WSW 6.9 mph - N/A   Clear
8:53 PM 81.0 °F 82.2 °F 63.0 °F 54% 30.01 in 10.0 mi WSW 8.1 mph - N/A   Clear
9:53 PM 79.0 °F - 64.0 °F 60% 30.03 in 10.0 mi WSW 9.2 mph - N/A   Clear
10:53 PM 79.0 °F - 64.0 °F 60% 30.05 in 10.0 mi WSW 8.1 mph - N/A   Clear
11:53 PM 77.0 °F - 64.0 °F 64% 30.06 in 10.0 mi WSW 9.2 mph - N/A   Clear